Regional Weather Roundup
Issued by NWS

Home | Current Version | Previous Version | Text Only | Print | Product List | Glossary On
Versions: 1 2 3 4 5 6 7 8 9 10 11 12 13 14 15 16 17 18 19 20 21 22 23 24 25 26 27 28 29 30 31 32 33 34 35 36 37 38 39 40 41 42 43 44 45 46 47 48 49 50
874
ASUS45 KREV 292310
RWRNV
NEVADA REGIONAL WEATHER ROUNDUP
NATIONAL WEATHER SERVICE RENO NV
400 PM PDT FRI JUL 29 2016

NOTE: "FAIR" INDICATES FEW OR NO CLOUDS BELOW 12,000 FEET WITH NO
SIGNIFICANT WEATHER AND/OR OBSTRUCTIONS TO VISIBILITY.

NVZ001-003-004-300000-
WESTERN NEVADA

CITY           SKY/WX    TMP DP  RH WIND       PRES   REMARKS
RENO           PTSUNNY  101  46  15 N20       29.95F
CARSON CITY    FAIR      99  36  11 W13G24    30.02S
MINDEN         FAIR      99  41  13 W18G28    30.02F
SLIDE MTN        N/A     75  34  22 W15         N/A
PYRAMID LAKE     N/A     93 N/A N/A W2          N/A
FALLON         MOSUNNY  104  33   8 VRB5      29.90F
LOVELOCK       SUNNY    104  36   9 VRB5      29.89F
HAWTHORNE      SUNNY     99  36  11 NW20G26   29.94F
$$

NVZ002-CAZ072-073-300000-
NORTHERN AND CENTRAL SIERRA

CITY           SKY/WX    TMP DP  RH WIND       PRES   REMARKS
S. LAKE TAHOE  SUNNY     88  39  17 S9G18     30.17F
TRUCKEE        MOSUNNY   91  41  17 SW12G22   30.15F
SQUAW VLY 8000 NOT AVBL
SUSANVILLE     SUNNY    100  41  13 SW14      29.97F
MAMMOTH LAKES    N/A     86  37  17 S10G21    30.24F
BRIDGEPORT       N/A     91  33  12 SW14G23   30.19F
$$

NVZ030-031-036-300000-
NORTHERN NEVADA

CITY           SKY/WX    TMP DP  RH WIND       PRES   REMARKS
ELKO           MOSUNNY   99  30   9 N8        30.00F
WINNEMUCCA     MOSUNNY  103  35   9 W9        29.93F
WENDOVER       MOSUNNY   97  37  12 SE9       29.96F
$$

NVZ035-037-300000-
CENTRAL NEVADA

CITY           SKY/WX    TMP DP  RH WIND       PRES   REMARKS
ELY            CLOUDY    81  43  26 SW10G20   30.18R
EUREKA           N/A     92  37  14 SE28G33   30.08S
$$

NVZ013-014-300000-
SOUTH CENTRAL NEVADA

CITY           SKY/WX    TMP DP  RH WIND       PRES   REMARKS
TONOPAH        MOSUNNY   98  34  10 SW16      30.03F
$$

NVZ017-020-022-300000-
SOUTHERN NEVADA

CITY           SKY/WX    TMP DP  RH WIND       PRES   REMARKS
LAS VEGAS      PTSUNNY  112  41   9 N12G21    29.71F HX 106
N. LAS VEGAS   MOSUNNY  108  43  11 CALM      29.75F
NELLIS AFB     MOSUNNY  109  48  13 W5        29.72F HX 105
HENDERSON      MOSUNNY  111  52  14 SE10G17   29.79F HX 108
MERCURY        MOSUNNY  109  38   9 S10G20    29.84F
$$




USA.gov is the U.S. government's official web portal to all federal, state and local government web resources and services.